TimeEST,TemperatureF,Dew PointF,Humidity,Sea Level PressureIn,VisibilityMPH,Wind Direction,Wind SpeedMPH,Gust SpeedMPH,PrecipitationIn,Events,Conditions,WindDirDegrees,DateUTC
12:54 AM,18.0,10.0,71,29.98,10.0,NNW,17.3,24.2,0.00,,Overcast,340,2013-12-29 05:54:00
1:54 AM,16.0,9.0,74,30.02,10.0,North,11.5,-,N/A,,Overcast,350,2013-12-29 06:54:00
2:54 AM,15.1,8.1,74,30.05,10.0,NNW,9.2,-,N/A,,Overcast,340,2013-12-29 07:54:00
3:54 AM,14.0,6.1,71,30.08,10.0,NNW,11.5,-,N/A,,Overcast,340,2013-12-29 08:54:00
4:52 AM,12.2,3.2,67,30.05,10.0,NNE,10.4,-,N/A,,Overcast,20,2013-12-29 09:52:00
4:54 AM,12.0,3.9,70,30.09,10.0,NNE,10.4,-,N/A,,Overcast,30,2013-12-29 09:54:00
5:13 AM,10.9,3.9,73,30.05,10.0,NNE,11.5,-,N/A,,Overcast,20,2013-12-29 10:13:00
5:54 AM,10.0,1.0,67,30.13,10.0,NNE,12.7,-,N/A,,Overcast,20,2013-12-29 10:54:00
6:54 AM,9.0,-0.0,67,30.15,10.0,NNE,8.1,-,N/A,,Overcast,20,2013-12-29 11:54:00
7:54 AM,8.1,-2.9,61,30.14,10.0,NNE,10.4,-,N/A,,Overcast,30,2013-12-29 12:54:00
8:54 AM,7.0,-2.0,67,30.14,10.0,NE,8.1,-,N/A,,Overcast,40,2013-12-29 13:54:00
9:40 AM,7.0,-2.0,67,30.12,9.0,NNE,10.4,-,0.00,,Overcast,20,2013-12-29 14:40:00
9:54 AM,7.0,-2.0,67,30.16,10.0,NNE,10.4,-,0.00,,Overcast,30,2013-12-29 14:54:00
10:54 AM,6.1,-2.0,69,30.14,8.0,NE,8.1,-,0.00,Snow,Light Snow,50,2013-12-29 15:54:00
11:09 AM,6.1,-0.9,73,30.07,2.0,NE,6.9,-,0.01,Snow,Light Snow,50,2013-12-29 16:09:00
11:15 AM,6.1,-2.0,69,30.06,1.5,NE,9.2,-,0.01,Snow,Light Snow,50,2013-12-29 16:15:00
11:24 AM,6.1,-0.9,73,30.06,1.2,NE,8.1,-,0.01,Snow,Light Snow,40,2013-12-29 16:24:00
11:36 AM,6.1,-0.0,76,30.05,0.5,NE,8.1,-,0.02,Snow,Snow,40,2013-12-29 16:36:00
11:44 AM,6.1,-0.0,76,30.04,0.2,ENE,9.2,-,0.03,Snow,Heavy Snow,60,2013-12-29 16:44:00
11:54 AM,5.0,-0.0,80,30.09,0.2,NE,8.1,-,0.04,Snow,Heavy Snow,40,2013-12-29 16:54:00
12:08 PM,6.1,1.0,80,30.03,0.5,NE,6.9,-,0.02,Snow,Snow,40,2013-12-29 17:08:00
12:15 PM,6.1,-0.0,76,30.03,0.5,NE,5.8,-,0.02,Snow,Snow,50,2013-12-29 17:15:00
12:35 PM,6.1,1.0,80,30.03,1.5,NNE,5.8,-,0.03,Snow,Light Snow,30,2013-12-29 17:35:00
12:45 PM,6.1,1.0,80,30.02,2.0,NNE,6.9,-,0.03,Snow,Light Snow,30,2013-12-29 17:45:00
12:54 PM,6.1,1.0,80,30.08,4.0,NNE,4.6,-,0.03,Snow,Light Snow,30,2013-12-29 17:54:00
1:32 PM,6.1,1.0,80,30.01,2.0,NNE,6.9,-,0.00,Snow,Light Snow,20,2013-12-29 18:32:00
1:42 PM,6.1,1.0,80,30.00,1.8,NNE,5.8,-,0.00,Snow,Light Snow,30,2013-12-29 18:42:00
1:54 PM,5.0,1.0,84,30.05,1.5,NE,9.2,-,0.00,Snow,Light Snow,50,2013-12-29 18:54:00
2:10 PM,6.1,1.9,83,29.99,1.2,NE,8.1,-,0.00,Snow,Light Snow,40,2013-12-29 19:10:00
2:33 PM,6.1,1.9,83,29.97,0.8,NE,8.1,-,0.01,Snow,Light Snow,40,2013-12-29 19:33:00
2:50 PM,6.8,1.4,79,29.97,1.2,NE,8.1,-,0.01,Snow,Light Snow,50,2013-12-29 19:50:00
2:54 PM,6.1,1.9,83,30.01,1.2,NE,8.1,-,0.01,Snow,Light Snow,50,2013-12-29 19:54:00
3:16 PM,6.1,1.9,83,29.96,1.5,NE,8.1,-,0.00,Snow,Light Snow,50,2013-12-29 20:16:00
3:54 PM,6.1,1.9,83,30.01,2.0,NE,9.2,-,0.01,Snow,Light Snow,50,2013-12-29 20:54:00
4:54 PM,6.1,1.9,83,29.98,2.5,NE,8.1,-,0.00,Snow,Light Snow,50,2013-12-29 21:54:00
5:44 PM,7.0,3.0,84,29.91,1.8,NE,5.8,-,0.00,Snow,Light Snow,50,2013-12-29 22:44:00
5:54 PM,7.0,3.0,84,29.96,1.5,NE,5.8,-,0.00,Snow,Light Snow,50,2013-12-29 22:54:00
6:54 PM,8.1,3.9,83,29.92,1.8,NE,4.6,-,0.00,Snow,Light Snow,50,2013-12-29 23:54:00
7:14 PM,8.1,3.9,83,29.85,2.0,NNE,4.6,-,0.00,Snow,Light Snow,20,2013-12-30 00:14:00
7:40 PM,8.1,3.9,83,29.83,1.8,NNE,4.6,-,0.00,Snow,Light Snow,20,2013-12-30 00:40:00
7:54 PM,8.1,3.9,83,29.88,1.2,NNE,5.8,-,0.00,Snow,Light Snow,20,2013-12-30 00:54:00
8:31 PM,8.1,5.0,87,29.80,1.5,North,5.8,-,0.00,Snow,Light Snow,10,2013-12-30 01:31:00
8:47 PM,8.1,5.0,87,29.79,1.2,NNE,4.6,-,0.00,Snow,Light Snow,20,2013-12-30 01:47:00
8:54 PM,8.1,5.0,87,29.83,1.5,NNE,4.6,-,0.00,Snow,Light Snow,20,2013-12-30 01:54:00
9:16 PM,9.0,5.0,84,29.76,1.2,North,6.9,-,0.00,Snow,Light Snow,10,2013-12-30 02:16:00
9:23 PM,9.0,5.0,84,29.75,1.8,North,6.9,-,0.01,Snow,Light Snow,10,2013-12-30 02:23:00
9:26 PM,9.0,5.0,84,29.74,2.0,North,6.9,-,0.01,Snow,Light Snow,10,2013-12-30 02:26:00
9:54 PM,9.0,6.1,88,29.78,1.8,North,4.6,-,0.01,Snow,Light Snow,10,2013-12-30 02:54:00
10:09 PM,10.0,6.1,84,29.71,2.5,NNE,5.8,-,0.01,Snow,Light Snow,20,2013-12-30 03:09:00
10:34 PM,10.9,7.0,84,29.69,1.8,NNE,4.6,-,0.02,Snow,Light Snow,30,2013-12-30 03:34:00
10:54 PM,10.9,8.1,88,29.73,1.8,North,4.6,-,0.02,Snow,Light Snow,10,2013-12-30 03:54:00
11:27 PM,12.0,8.1,84,29.65,1.2,North,5.8,-,0.01,Snow,Light Snow,10,2013-12-30 04:27:00
11:36 PM,12.0,9.0,88,29.65,1.5,North,5.8,-,0.02,Snow,Light Snow,10,2013-12-30 04:36:00
11:54 PM,12.0,9.0,88,29.69,1.5,North,5.8,-,0.03,Snow,Light Snow,10,2013-12-30 04:54:00